www.pogodaiklimat.ru
ПОГОДА в Кардинхеме
Время
(UTC), дата
19 4.12
20 4.12
21 4.12
22 4.12
23 4.12
00 5.12
01 5.12
02 5.12
03 5.12
04 5.12
05 5.12
06 5.12
07 5.12
08 5.12
09 5.12
10 5.12
11 5.12
12 5.12
13 5.12
14 5.12
15 5.12
16 5.12
17 5.12
18 5.12
19 5.12
20 5.12
21 5.12
22 5.12
23 5.12
00 6.12
01 6.12
02 6.12
03 6.12
04 6.12
05 6.12
06 6.12
07 6.12
08 6.12
09 6.12
10 6.12
11 6.12
12 6.12
13 6.12
14 6.12
15 6.12
16 6.12
17 6.12
18 6.12
19 6.12
20 6.12
21 6.12
22 6.12
23 6.12
00 7.12
01 7.12
02 7.12
03 7.12
04 7.12
05 7.12
06 7.12
07 7.12
08 7.12
09 7.12
10 7.12
11 7.12
12 7.12
13 7.12
14 7.12
15 7.12
16 7.12
17 7.12
18 7.12
19 7.12
20 7.12
21 7.12
22 7.12
23 7.12
00 8.12
01 8.12
02 8.12
03 8.12
04 8.12
05 8.12
06 8.12
07 8.12
08 8.12
09 8.12
10 8.12
11 8.12
12 8.12
13 8.12
14 8.12
15 8.12
16 8.12
17 8.12
18 8.12
19 8.12
20 8.12
21 8.12
22 8.12
23 8.12
00 9.12
01 9.12
02 9.12
03 9.12
04 9.12
05 9.12
06 9.12
07 9.12
08 9.12
09 9.12
10 9.12
11 9.12
12 9.12
13 9.12
14 9.12
15 9.12
16 9.12
17 9.12
18 9.12
19 9.12
20 9.12
21 9.12
22 9.12
23 9.12
00 10.12
01 10.12
02 10.12
03 10.12
04 10.12
05 10.12
06 10.12
07 10.12
08 10.12
09 10.12
10 10.12
11 10.12
12 10.12
13 10.12
14 10.12
15 10.12
16 10.12
17 10.12
18 10.12
19 10.12
20 10.12
21 10.12
22 10.12
23 10.12
00 11.12
01 11.12
02 11.12
03 11.12
04 11.12
05 11.12
06 11.12
07 11.12
08 11.12
09 11.12
10 11.12
11 11.12
12 11.12
13 11.12
14 11.12
15 11.12
16 11.12
17 11.12
18 11.12
Ветер
(напр.,м/с)
Видим. Явления Облачность Т
(С)
Тd
(С)
f
(%)
Тe
(С)
Тes
(С)
Комфортность P
(гПа)
Po
(гПа)
Тmin
(С)
Tmax
(С)
R
(мм)
R24
(мм)
S
(см)
ЮЗ 1 14 км н/о +4.1 +3.1 93 +4 +4 1021.2 996.4
З 2 17 км н/о +3.5 +2.2 91 +1 +1 1021.7 996.8
З 3 27 км н/о +4.0 +2.3 89 +1 +1 1022.0 997.1
З 3 24 км н/о +4.9 +3.1 88 +2 +2 1022.2 997.4
ЮЗ 3 21 км н/о +5.0 +2.9 86 +1 +1 1022.3 997.5
З 3 18 км н/о +5.2 +3.4 88 +2 +2 1022.6 997.8
ЮЗ 3 17 км н/о +5.6 +4.1 90 +3 +3 1022.1 997.3
З 4 16 км н/о +5.9 +4.7 92 +2 +2 1021.8 997.1
ЮЗ 2 10 км н/о +5.2 +4.3 94 +3 +3 1021.9 997.2
ЮЗ 3 4000 м дымка н/о +5.5 +5.0 97 +2 +2 1021.7 997.0
ЮЗ 2 100 м туман н/о +5.1 +4.8 98 +3 +3 1022.0 997.3
ЮЗ 2 100 м туман н/о +4.7 +4.4 98 +2 +2 1022.3 997.5 +3.5 70.9
ЮЗ 2 100 м туман н/о +4.2 +4.0 99 +1 +1 1022.5 997.7
ЮЗ 2 300 м туман н/о +4.2 +4.0 99 +1 +1 1022.9 998.1
З 4 12 км в посл. час туман н/о +4.4 +4.3 99 0 0 1022.6 997.8
ЮЗ 3 14 км н/о +5.3 +5.1 99 +2 +2 1022.6 997.9
ЮЗ 4 26 км н/о +7.3 +5.9 91 +4 +4 1022.6 998.0
ЮЗ 6 23 км н/о +7.9 +5.6 85 +4 +4 1021.5 997.0
ЮЗ 5 23 км н/о +8.2 +5.8 85 +4 +4 1020.5 996.1
ЮЗ 5
{13}
25 км н/о +8.2 +5.9 85 +4 +4 1019.6 995.2
ЮЗ 6 22 км н/о +8.1 +6.0 87 +4 +4 1018.7 994.3
ЮЗ 6 21 км н/о +8.2 +6.3 88 +4 +4 1018.4 994.0
ЮЗ 7 6000 м н/о +8.5 +6.7 88 +4 +4 1017.8 993.4
ЮЗ 7 8000 м в посл. час морось н/о +8.5 +7.4 93 +4 +4 1017.7 993.4 +8.6 0.2
ЮЗ 8 2100 м морось н/о +8.4 +8.1 98 +4 +4 1017.4 993.0
ЮЗ 9 5000 м в посл. час морось н/о +8.8 +8.6 99 +4 +4 1016.6 992.3
ЮЗ 8 2400 м морось н/о +9.3 +9.1 99 +5 +5 1016.3 992.0
ЮЗ 8 3100 м морось с дождем н/о +9.7 +9.6 99 +5 +5 1015.7 991.5
ЮЗ 8 15 км слаб. дождь н/о +10.0 +9.8 99 +6 +6 1014.5 990.4
З 7
{14}
10 км в посл. час дождь н/о +10.1 +9.9 99 +6 +6 1014.0 989.9 0.8
З 8 1800 м слаб. морось н/о +10.2 +10.0 99 +6 +6 1012.9 988.8
З 8 3800 м слаб. морось н/о +10.4 +10.2 99 +6 +6 1012.0 988.0
ЮЗ 10
{14}
2100 м сильн. морось н/о +10.5 +10.4 99 +6 +6 1011.5 987.5
З 9
{14}
4400 м слаб. морось н/о +10.6 +10.4 99 +6 +6 1010.5 986.5
ЮЗ 9
{14}
4600 м дождь н/о +10.7 +10.5 99 +7 +7 1010.1 986.1
ЮЗ 8
{13}
3100 м дождь н/о +10.7 +10.5 99 +7 +7 1009.4 985.4 +8.2 4 4.6
З 10
{15}
3100 м дождь н/о +10.9 +10.7 99 +7 +7 1009.0 985.0
З 9
{14}
3600 м слаб. морось н/о +10.8 +10.7 99 +7 +7 1008.5 984.6
З 9
{16}
3100 м морось н/о +10.7 +10.6 99 +6 +6 1008.6 984.7
З 9-15
{15}
5000 м слаб. ливневой дождь н/о +10.6 +10.5 99 +6 +6 1008.7 984.7
З 8-14
{14}
2200 м морось с дождем н/о +10.5 +10.4 99 +6 +6 1008.6 984.6
З 9
{15}
16 км в посл. час дождь н/о +10.5 +10.2 98 +6 +6 1007.8 983.9 2
З 8
{14}
16 км н/о +10.4 +9.6 95 +6 +6 1007.5 983.5
З 11-17
{17}
3800 м ливневой дождь н/о +10.2 +9.8 97 +5 +5 1006.6 982.6
З 10-15
{16}
9000 м в посл. час дождь н/о +9.7 +9.2 97 +5 +5 1007.1 983.1
З 7
{13}
8000 м дымка н/о +9.5 +8.9 96 +5 +5 1008.0 984.0
З 7
{13}
8000 м дымка н/о +8.8 +8.2 96 +4 +4 1008.9 984.8
З 7 7000 м дымка н/о +8.6 +8.0 96 +4 +4 1009.6 985.4 +10.9 3
З 6 7000 м дымка н/о +8.6 +8.0 96 +5 +5 1010.6 986.4
З 5 7000 м дымка н/о +8.5 +7.9 96 +5 +5 1011.4 987.2
З 7 8000 м дымка н/о +8.7 +8.0 95 +4 +4 1011.8 987.6
З 4 8000 м дымка н/о +8.1 +7.4 95 +5 +5 1012.7 988.4
З 4 7000 м дымка н/о +8.2 +7.7 97 +5 +5 1013.3 989.0
З 4 8000 м в посл. час морось н/о +8.2 +7.7 97 +5 +5 1013.7 989.4 0.0
З 4 13 км в посл. час дождь н/о +7.9 +6.9 93 +5 +5 1013.8 989.5
З 4 8000 м дымка н/о +7.8 +7.2 96 +4 +4 1014.0 989.6
З 3 7000 м дымка н/о +8.0 +7.6 97 +5 +5 1014.3 990.0
ЮЗ 2 10 км н/о +7.7 +7.1 96 +5 +5 1014.6 990.2
З 3 10 км н/о +6.7 +6.1 96 +3 +3 1015.1 990.6
З 3 9000 м в посл. час морось н/о +6.3 +5.9 97 +3 +3 1015.5 991.0 +6.1 0.0 3.4
З 4 8000 м дымка н/о +5.9 +5.5 97 +2 +2 1015.7 991.1
З 4 2200 м в посл. час морось н/о +6.8 +6.6 99 +3 +3 1015.9 991.4
З 3 7000 м в посл. час дождь н/о +7.5 +7.3 99 +4 +4 1016.6 992.1
ЮЗ 3 3600 м морось с дождем н/о +8.2 +8.1 99 +5 +5 1016.2 991.8
З 4 16 км в посл. час дождь н/о +8.8 +8.7 99 +5 +5 1016.5 992.2
ЮЗ 4 23 км н/о +8.9 +8.2 95 +6 +6 1015.7 991.4 0.4
ЮЗ 5 45 км н/о +9.3 +8.4 94 +6 +6 1015.0 990.7
ЮЗ 5 35 км н/о +9.6 +7.9 89 +6 +6 1014.5 990.3
ЮЗ 4 28 км н/о +9.5 +8.1 91 +7 +7 1014.2 990.0
ЮЗ 6 45 км н/о +9.2 +7.5 89 +5 +5 1014.2 990.0
ЮЗ 6 21 км в посл. час дождь н/о +8.8 +8.0 95 +5 +5 1013.5 989.3
Ю 6 18 км н/о +8.8 +7.9 94 +5 +5 1012.4 988.2 +9.6 0.4
ЮЗ 8 19 км н/о +8.9 +7.7 92 +4 +4 1012.0 987.8
Ю 8 12 км н/о +9.1 +8.0 93 +5 +5 1010.7 986.5
Ю 10
{15}
11 км н/о +9.4 +8.3 93 +5 +5 1009.6 985.5
Ю 9
{14}
8000 м слаб. морось с дождем н/о +9.7 +8.9 95 +5 +5 1007.7 983.7
Ю 9-14
{15}
5000 м дождь н/о +9.9 +9.6 98 +5 +5 1006.3 982.3
ЮЗ 8-14
{14}
2700 м дождь н/о +10.6 +10.3 98 +7 +7 1005.6 981.7 5
ЮЗ 10
{15}
3100 м дождь н/о +11.5 +11.3 99 +7 +7 1004.5 980.7
З 10-16
{19}
11 км дождь н/о +11.4 +11.2 99 +7 +7 1004.2 980.4
З 9
{17}
9000 м в посл. час дождь н/о +9.9 +9.0 94 +6 +6 1004.5 980.6
З 9
{14}
7000 м дым н/о +9.4 +8.1 92 +5 +5 1004.6 980.7
З 9-15
{15}
9000 м дым н/о +8.9 +6.5 85 +4 +4 1004.9 980.9
З 9-15
{15}
9000 м в посл. час дождь н/о +8.5 +5.9 84 +4 +4 1005.4 981.4 +8.4 8 8.4
З 8
{15}
10 км н/о +8.4 +5.5 82 +4 +4 1005.9 981.8
З 9 12 км н/о +8.3 +4.4 76 +3 +3 1006.0 981.9
З 8
{17}
11 км слаб. ливневой дождь н/о +6.9 +5.3 90 +2 +2 1006.1 981.9
З 9-15
{15}
10 км сильн. ливневой дождь н/о +7.1 +5.7 91 +2 +2 1006.2 982.0
З 7
{16}
14 км в посл. час дождь н/о +7.4 +6.5 94 +3 +3 1005.6 981.4
З 9
{16}
10 км слаб. ливневой дождь н/о +8.5 +6.4 87 +4 +4 1004.9 980.8 2
З 9-14
{17}
12 км в посл. час дождь н/о +7.9 +5.9 87 +3 +3 1004.5 980.4
З 9-14
{22}
18 км в посл. час дождь н/о +6.9 +5.1 88 +1 +1 1003.9 979.7
З 12-17
{17}
13 км н/о +7.5 +3.1 74 +2 +2 1003.2 979.1
З 7-15
{16}
10 км в посл. час дождь н/о +6.4 +5.2 92 +1 +1 1002.7 978.5
З 11-21
{21}
10 км сильные жидкие осадки н/о +6.5 +4.2 85 0 0 1002.2 978.1
З 8-14
{19}
15 км в посл. час дождь н/о +5.7 +4.2 90 -0 -0 1001.8 977.5 +8.8 6
З 11-16
{23}
4400 м ливневой дождь н/о +6.2 +4.8 91 -0 -0 1000.3 976.2
З 12-18
{20}
9000 м в посл. час дождь н/о +7.4 +5.0 85 +1 +1 998.8 974.8
З 14-25
{25}
4600 м дождь н/о +7.3 +5.9 91 +1 +1 996.8 972.8
З 13-22
{25}
11 км в посл. час дождь н/о +7.7 +4.7 81 +2 +2 998.3 974.3
З 12
{22}
8000 м в посл. час дождь н/о +8.3 +5.2 81 +3 +3 998.9 975.0
З 12-18
{21}
11 км н/о +8.5 +5.3 80 +3 +3 999.8 975.9 4
З 13-21
{22}
13 км н/о +8.5 +4.3 75 +3 +3 1000.7 976.7
СЗ 15-21
{23}
11 км н/о +8.7 +4.6 75 +3 +3 1001.6 977.6
СЗ 15-26
{26}
9000 м дым н/о +8.9 +4.8 75 +3 +3 1003.5 979.5
СЗ 14 9000 м в посл. час дождь н/о +8.7 +5.2 79 +3 +3 1005.3 981.3
СЗ 14-22
{26}
11 км в посл. час дождь н/о +8.6 +4.6 76 +3 +3 1007.3 983.2
СЗ 14-19
{25}
13 км в посл. час дождь н/о +8.4 +4.5 76 +3 +3 1009.7 985.5 +4.5 4 9.2
СЗ 13-19
{21}
15 км в посл. час дождь н/о +8.2 +4.7 79 +2 +2 1011.9 987.6
СЗ 12-17
{20}
16 км н/о +8.0 +4.1 76 +2 +2 1014.1 989.7
СЗ 12-20
{20}
17 км н/о +7.6 +4.0 78 +2 +2 1015.9 991.5
СЗ 11-17
{20}
18 км н/о +8.3 +4.0 74 +3 +3 1017.7 993.3
СЗ 11-18
{19}
13 км н/о +8.7 +4.1 73 +4 +4 1019.4 995.0
СЗ 11
{16}
13 км н/о +9.4 +4.3 70 +5 +5 1020.0 995.6 0.0
СЗ 11
{16}
18 км н/о +9.3 +4.2 70 +5 +5 1021.0 996.6
СЗ 9
{15}
12 км н/о +9.2 +4.2 71 +5 +5 1022.1 997.6
СЗ 9
{14}
15 км н/о +8.0 +3.1 71 +3 +3 1022.9 998.4
СЗ 6 13 км н/о +7.4 +3.9 78 +3 +3 1024.1 999.5
СЗ 3 13 км н/о +6.9 +3.9 81 +4 +4 1024.7 1000.0
СЗ 2 12 км н/о +5.9 +3.6 85 +4 +4 1025.4 1000.6 +9.8 0.0
ЮЗ 1 10 км н/о +4.6 +3.0 89 +4 +4 1026.0 1001.1
ЮЗ 2 10 км н/о +4.0 +2.7 91 +1 +1 1026.4 1001.4
ЮВ 2 8000 м дым н/о +2.9 +1.9 93 -0 -0 1026.0 1000.9
Ю 2 8000 м дымка н/о +3.4 +2.9 97 0 0 1026.1 1001.1
Ю 3 7000 м дымка н/о +2.8 +2.3 97 -1 -1 1025.8 1000.7
ЮВ 4 7000 м дымка н/о +3.2 +2.8 97 -1 -1 1025.0 1000.0
Ю 4 10 км дымка н/о +5.7 +5.3 97 +2 +2 1024.0 999.2
Ю 6 11 км н/о +6.5 +5.5 93 +2 +2 1023.1 998.4
Ю 8 12 км н/о +7.9 +6.3 90 +3 +3 1021.4 996.9
Ю 9
{13}
12 км н/о +8.8 +6.7 87 +4 +4 1020.2 995.8
Ю 9
{13}
10 км слаб. ливневой дождь н/о +8.9 +7.7 92 +4 +4 1018.9 994.6
Ю 9
{15}
5000 м слаб. дождь н/о +9.1 +8.2 94 +4 +4 1017.4 993.1 +2.4 0.4 0.4
Ю 10-16
{16}
2600 м дождь н/о +9.1 +8.8 98 +4 +4 1015.9 991.6
Ю 11
{17}
3800 м дождь н/о +9.5 +9.2 98 +4 +4 1014.4 990.2
Ю 12-17
{17}
2800 м дождь н/о +10.2 +10.0 99 +5 +5 1013.3 989.2
Ю 11
{16}
3300 м слаб. морось н/о +10.4 +10.2 99 +6 +6 1012.4 988.3
Ю 11-16
{18}
1800 м слаб. дождь н/о +11.0 +10.9 99 +6 +6 1011.0 987.0
Ю 11
{19}
2400 м дождь н/о +11.2 +11.1 99 +7 +7 1009.4 985.4 4
ЮЗ 12
{19}
4400 м дождь н/о +11.5 +11.4 99 +7 +7 1007.7 983.8
ЮЗ 12-18
{19}
3700 м дождь н/о +11.6 +11.4 99 +7 +7 1006.2 982.4
Ю 11-16
{21}
5000 м град н/о +11.6 +11.3 98 +7 +7 1004.6 980.8
ЮЗ 12-20
{20}
3800 м дождь н/о +12.0 +11.7 98 +8 +8 1003.6 979.8
З 8
{22}
6000 м дождь н/о +7.4 +6.9 97 +2 +2 1006.1 982.0
З 7 11 км слаб. дождь н/о +7.2 +6.6 96 +2 +2 1007.2 983.0 +12.2 9
З 7
{15}
13 км в посл. час дождь н/о +6.8 +6.2 96 +2 +2 1008.2 983.9
З 7 11 км н/о +7.0 +4.8 86 +2 +2 1008.8 984.6
З 7 14 км н/о +6.5 +2.7 77 +2 +2 1009.7 985.4
З 6 15 км н/о +6.1 +3.2 82 +1 +1 1010.4 986.0
З 5 16 км н/о +6.5 +3.6 82 +2 +2 1010.7 986.3
З 5 16 км в посл. час дождь н/о +5.8 +4.1 89 +1 +1 1011.1 986.6 0.6
З 6 15 км н/о +5.7 +3.0 83 +1 +1 1010.8 986.4
З 5 17 км н/о +5.5 +3.1 85 +1 +1 1010.6 986.1
З 7 6000 м ливневой дождь н/о +5.8 +3.9 88 +1 +1 1010.3 985.9
З 6 19 км ливневой дождь н/о +5.1 +3.9 92 -0 -0 1009.5 985.1
З 5 8000 м слаб. морось н/о +4.7 +3.8 94 -0 -0 1009.0 984.6
ЮЗ 3 19 км в посл. час дождь н/о +4.0 +3.4 96 0 0 1007.9 983.4 +3.5 3 12.0
Ю 3 15 км в посл. час дождь н/о +3.3 +2.7 96 -1 -1 1007.4 982.9
ЮЗ 3 17 км в посл. час дождь н/о +3.9 +3.2 95 0 0 1006.3 981.8
ЮЗ 6 15 км слаб. ливневой дождь н/о +4.5 +3.5 93 -1 -1 1005.5 981.1
З 8-14
{14}
9000 м в посл. час дождь н/о +4.6 +4.0 96 -2 -2 1005.0 980.6
З 6 21 км в посл. час дождь н/о +5.3 +3.4 88 0 0 1004.4 980.0
З 4
{13}
35 км в посл. час дождь н/о +3.9 +2.9 93 -1 -1 1003.9 979.5 3
З 5
{13}
17 км в посл. час дождь н/о +4.1 +3.5 96 -1 -1 1003.5 979.1
З 6 23 км в посл. час дождь н/о +4.9 +3.2 89 -0 -0 1003.1 978.8
З 6 30 км в посл. час дождь н/о +5.5 +2.9 83 +1 +1 1003.3 979.0
СЗ 7 27 км в посл. час дождь н/о +4.9 +2.3 83 -1 -1 1004.0 979.7
СЗ 7
{13}
30 км ливневой дождь н/о +4.2 +2.0 86 -2 -2 1005.1 980.7
СЗ 7 27 км сильные жидкие осадки н/о +4.2 +1.6 83 -1 -1 1005.7 981.2 +5.9 6
Местоположение метеостанции Кардинхем (Великобритания): широта 50.50 долгота -4.67 высота над уровнем моря 199 м.
В архиве по умолчанию представлена погода в Кардинхеме за последнюю неделю. Архивные данные за месяц целиком и за предыдущие месяцы, начиная с января 2011 года, Вы можете получить, выбрав интересующий диапазон дат из раскрывающегося списка и нажав кнопку "Найти!".
*Определитесь, кто Вы:
Внимание! Время в таблицах - всемирное. Для получения местного времени необходимо прибавить поправку, которая равна 0 ч.
Смотрите также архив погоды в соседних городах и на ближайших метеорологических станциях:
Партнеры нашего сайта:      
Пояснения к столбцам:
  • Ветер - указаны скорость ветра в м/с - средняя за 10 мин, порывы в срок и между сроками (в фигурных скобках) и направление, откуда дует ветер: С - северный,
  • СВ - северо-восточный, В - восточный, ЮВ - юго-восточный, Ю - южный, ЮЗ - юго-западный, З - западный, СЗ - северо-западный.
  • Видимость - горизонтальная дальность видимости в метрах или километрах. При видимости от 1 до 10 км при отсутствии осадков обычно наблюдается дымка, при ухудшении видимости до 1 км и менее - туман. В сухую погоду видимость может ухудшаться дымом, пылью или мглою.
  • Явления - указаны атмосферные явления, наблюдавшиеся в срок или в последний час перед сроком; фигурными скобками обозначены явления, наблюдавшиеся между сроками (за 1-3 часа до срока); квадратными скобками обозначены град или гололедные отложения с указанием их диаметра в мм.
  • Облачность - указаны через наклонную черту общая и нижняя облачность в баллах и высота нижней границы облаков в метрах; квадратными скобками обозначены формы облаков: Ci - перистые, Cs - перисто-слоистые, Cc - перисто-кучевые, Ac - высококучевые, As - высокослоистые, Sc - слоисто-кучевые, Ns - слоисто-дождевые, Cu - кучевые, Cb - кучево-дождевые. Подробнее классификацию облаков см. в Атласе облаков (PDF).
  • T - Температура воздуха - температура, измеренная на высоте 2 м над землей.
  • Td - Температура точки росы - температура, при понижении до которой содержащийся в воздухе водяной пар достигнет насыщения.
  • f - Относительная влажность воздуха - влажноcть воздуха, измеренная на высоте 2 м над землей.
  • Te - Эффективная температура - температура, которую ощущает одетый по сезону человек в тени. Характеристика душности погоды. При расчете учитывается влияние влажности воздуха и скорости ветра на теплоощущения человека.
  • Tes - Эффективная температура на солнце - температура, которую ощущает человек, с поправкой на солнечный нагрев. Характеристика знойности погоды. Зависит от высоты солнца над горизонтом, облачности и скорости ветра. Ночью, в пасмурную погоду, а также при ветре 12 м/с и более поправка равна нулю.
  • P - Атмосферное давление - приведенное к уровню моря атмосферное давление.
  • Po - Атмосферное давление - измеренное на уровне метеостанции атмосферное давление.
  • Tmin - Минимальная температура - минимум температуры воздуха на высоте 2 м над землей.
  • Tmax - Максимальная температура - максимум температуры воздуха на высоте 2 м над землей.
  • R - Количество осадков - Количество выпавших осадков за период времени, мм. При наведении курсора мыши на число - период времени, за который выпало указанное количество осадков.
  • R24 - Количество осадков - Количество выпавших осадков за 24 часа, мм.
  • S - Снежный покров - Высота снежного покрова, см. При наведении курсора мыши на число - состояние снежного покрова и степень покрытия местности в баллах.